EW3247 Weather Reports


time (UTC)temp
F
wind
direction
speed
knots
gust
knots
rain 1hr
in
rain 24hr
in
rain mn
in
humidity
%
barometer
mb
20260510142029 74 360 0.0 1.7 0.00 0.00 0.00 56 1013.1
20260510141041 72 248 0.9 2.6 0.00 0.00 0.00 56 1013.0
20260510140029 72 209 0.9 2.6 0.00 0.00 0.00 59 1013.1
20260510135020 72 140 0.9 0.9 0.00 0.00 0.00 63 1013.3
20260510134048 71 199 0.0 1.7 0.00 0.00 0.00 63 1013.3
20260510133020 69 197 0.0 0.9 0.00 0.00 0.00 65 1013.3
20260510132030 69 190 0.9 0.9 0.00 0.00 0.00 65 1013.3
20260510131021 67 208 0.0 0.9 0.00 0.00 0.00 69 1013.1
20260510130029 67 0.0 0.0 0.00 0.00 0.00 72 1013.1
20260510125021 66 0.0 0.0 0.00 0.00 0.00 75 1013.2
20260510124029 65 19 0.0 0.9 0.00 0.00 0.00 77 1013.5
20260510123021 63 20 0.0 0.9 0.00 0.00 0.00 80 1013.4
20260510122029 62 321 0.0 0.9 0.00 0.00 0.00 82 1013.2
20260510121040 62 0.0 0.0 0.00 0.00 0.00 84 1013.2
20260510120030 59 0.0 0.0 0.00 0.00 0.00 96 1013.2
20260510115022 58 0.0 0.0 0.00 0.00 0.00 98 1012.9
20260510114029 57 0.0 0.0 0.00 0.00 0.00 99 1013.0
20260510113021 53 0.0 0.0 0.00 0.00 0.00 99 1012.9
20260510112029 52 0.0 0.0 0.00 0.00 0.00 99 1012.6
20260510111021 52 0.0 0.0 0.00 0.00 0.00 99 1012.5
20260510110041 52 0.0 0.0 0.00 0.00 0.00 99 1012.4
20260510105021 51 0.0 0.0 0.00 0.00 0.00 99 1012.2
20260510104028 49 0.0 0.0 0.00 0.00 0.00 99 1012.1
20260510103020 48 0.0 0.0 0.00 0.00 0.00 99 1012.0
20260510102050 48 0.0 0.0 0.00 0.00 0.00 99 1011.6
20260510101022 49 0.0 0.0 0.00 0.00 0.00 99 1011.5
20260510100029 49 0.0 0.0 0.00 0.00 0.00 99 1011.5
20260510095022 48 0.0 0.0 0.00 0.00 0.00 99 1011.4
20260510094029 49 0.0 0.0 0.00 0.00 0.00 99 1011.5
20260510093021 49 0.0 0.0 0.00 0.00 0.00 99 1011.5
20260510092029 49 0.0 0.0 0.00 0.00 0.00 99 1011.5
20260510091041 49 0.0 0.0 0.00 0.00 0.00 99 1011.4
20260510090028 49 0.0 0.0 0.00 0.00 0.00 99 1011.3
20260510085020 50 53 0.0 0.9 0.00 0.00 0.00 99 1011.3
20260510084100 49 0.0 0.0 0.00 0.00 0.00 99 1011.3
20260510083022 49 0.0 0.0 0.00 0.00 0.00 99 1011.2
20260510082030 49 0.0 0.0 0.00 0.00 0.00 99 1011.2
20260510081041 49 0.0 0.0 0.00 0.00 0.00 99 1011.0
20260510080029 49 0.0 0.0 0.00 0.00 0.00 99 1010.8
20260510075041 49 0.0 0.0 0.00 0.00 0.00 99 1010.7
20260510074029 49 0.0 0.0 0.00 0.00 0.00 98 1010.6
20260510073021 49 0.0 0.0 0.00 0.00 0.00 98 1010.6
20260510072016 49 0.0 0.0 0.00 0.00 0.00 98 1010.4
20260510071020 49 0.0 0.0 0.00 0.00 0.00 98 1010.4
20260510070040 50 0.0 0.0 0.00 0.00 0.00 98 1010.3
20260510065022 50 0.0 0.0 0.00 0.00 0.00 98 1010.3
20260510064030 51 0.0 0.0 0.00 0.00 0.00 98 1010.0
20260510063022 51 0.0 0.0 0.00 0.00 0.00 98 1010.1
20260510062029 51 0.0 0.0 0.00 0.00 0.00 98 1010.1
20260510061021 51 0.0 0.0 0.00 0.00 0.00 98 1010.1
20260510060029 51 0.0 0.0 0.00 0.00 0.00 97 1010.1
20260510055021 52 0.0 0.0 0.00 0.00 0.00 97 1010.2
20260510054028 52 0.0 0.0 0.00 0.00 0.00 97 1010.3
20260510053022 52 0.0 0.0 0.00 0.00 0.00 97 1010.3
20260510052038 53 0.0 0.0 0.00 0.00 0.00 96 1010.5
20260510051041 53 0.0 0.0 0.00 0.00 0.00 96 1010.4
20260510050049 53 0.0 0.0 0.00 0.00 0.00 96 1010.4
20260510045021 53 0.0 0.0 0.00 0.00 0.00 96 1010.4
20260510044028 53 0.0 0.0 0.00 0.00 0.00 95 1010.4
20260510043020 54 0.0 0.0 0.00 0.00 0.00 95 1010.5
20260510042018 54 0.0 0.0 0.00 0.00 0.00 94 1010.5
20260510041022 55 0.0 0.0 0.00 0.00 0.00 94 1010.5
20260510040030 55 0.0 0.0 0.00 0.00 0.00 94 1010.4
20260510035022 56 0.0 0.0 0.00 0.00 0.00 93 1010.3
20260510034030 56 0.0 0.0 0.00 0.00 0.00 93 1010.3
20260510033021 56 0.0 0.0 0.00 0.00 0.00 92 1010.4
20260510032029 56 0.0 0.0 0.00 0.00 0.00 92 1010.2
20260510031021 57 0.0 0.0 0.00 0.00 0.00 91 1010.2
20260510030041 57 0.0 0.0 0.00 0.00 0.00 90 1010.2
20260510025022 57 0.0 0.0 0.00 0.00 0.00 90 1010.1
20260510024030 58 0.0 0.0 0.00 0.00 0.00 89 1010.0
20260510023022 58 63 0.0 0.9 0.00 0.00 0.00 89 1010.1
20260510022030 58 69 0.0 0.9 0.00 0.00 0.00 88 1010.0
20260510021021 59 92 0.0 0.9 0.00 0.00 0.00 88 1010.0
20260510020039 59 51 0.0 0.9 0.00 0.00 0.00 88 1010.0
20260510015021 59 62 0.0 0.9 0.00 0.00 0.00 87 1010.0
20260510014029 60 0.0 0.0 0.00 0.00 0.00 85 1009.8
20260510013041 60 87 0.0 0.9 0.00 0.00 0.00 85 1009.7
20260510012022 60 70 0.0 0.9 0.00 0.00 0.00 85 1009.6
20260510011022 60 78 0.0 0.9 0.00 0.00 0.00 85 1009.4
20260510010030 61 0.0 0.0 0.00 0.00 0.00 85 1009.3
20260510005102 61 69 0.0 0.9 0.00 0.00 0.00 84 1009.1
20260510004030 62 0.0 0.0 0.00 0.00 0.00 83 1009.2
20260510003101 62 0.0 0.0 0.00 0.00 0.00 82 1009.0
20260510002023 63 0.0 0.0 0.00 0.00 0.00 80 1009.1
20260510001021 64 0.0 0.0 0.00 0.00 0.00 79 1008.9
20260510000031 65 0.0 0.0 0.00 0.00 0.00 77 1008.8
20260509235022 65 0.0 0.0 0.00 0.00 0.00 76 1008.8
20260509234050 66 0.0 0.0 0.00 0.00 0.00 75 1008.8
20260509233022 66 0.0 0.0 0.00 0.00 0.00 74 1008.7
20260509232024 67 39 0.0 0.9 0.00 0.00 0.00 72 1008.6
20260509231041 68 42 0.0 0.9 0.00 0.00 0.00 71 1008.5
20260509230030 68 48 0.0 0.9 0.00 0.00 0.00 71 1008.6
20260509225021 69 34 0.0 0.9 0.00 0.00 0.00 70 1008.6
20260509224029 68 51 0.0 1.7 0.00 0.00 0.00 71 1008.5
20260509223022 68 52 0.0 0.9 0.00 0.00 0.00 72 1008.6
20260509222024 69 75 0.0 0.9 0.00 0.00 0.00 70 1008.6
20260509221022 68 52 0.9 2.6 0.00 0.00 0.00 71 1008.7
20260509220030 68 58 0.0 1.7 0.00 0.00 0.00 71 1008.4
20260509215022 68 53 0.9 1.7 0.00 0.00 0.00 70 1008.5
20260509214030 68 53 0.0 2.6 0.00 0.00 0.00 72 1008.7
20260509213021 68 66 0.0 0.9 0.00 0.00 0.00 71 1008.6
20260509212025 69 47 0.9 0.9 0.00 0.00 0.00 70 1008.6
20260509211023 69 41 0.9 0.9 0.00 0.00 0.00 70 1008.6
20260509210030 69 43 0.9 1.7 0.00 0.00 0.00 69 1008.4
20260509205022 69 0.0 0.0 0.00 0.00 0.00 68 1008.5
20260509204030 69 71 0.0 0.9 0.00 0.00 0.00 69 1008.3
20260509203022 68 85 0.0 0.9 0.00 0.00 0.00 68 1008.3
20260509202046 70 75 0.9 2.6 0.00 0.00 0.00 65 1008.5
20260509201036 70 170 0.0 0.9 0.00 0.00 0.00 65 1008.5
20260509200029 70 48 0.9 2.6 0.00 0.00 0.00 64 1008.7
20260509195023 69 51 0.0 0.9 0.00 0.00 0.00 64 1008.8
20260509194031 69 86 0.9 2.6 0.00 0.00 0.00 64 1009.1
20260509193023 69 83 0.0 1.7 0.00 0.00 0.00 64 1009.5
20260509192030 69 48 0.0 0.9 0.00 0.00 0.00 64 1009.4
20260509191018 69 52 0.9 2.6 0.00 0.00 0.00 63 1009.5
20260509190030 68 102 0.0 0.9 0.00 0.00 0.00 63 1009.6
20260509185022 68 96 0.0 0.9 0.00 0.00 0.00 63 1009.5
20260509184029 70 30 0.0 0.9 0.00 0.00 0.00 61 1009.7
20260509183023 68 129 0.9 0.9 0.00 0.00 0.00 61 1009.8
20260509182031 68 0.0 0.0 0.00 0.00 0.00 62 1009.9
20260509181019 68 47 0.0 0.9 0.00 0.00 0.00 64 1010.3
20260509180031 67 288 0.0 0.9 0.00 0.00 0.00 65 1010.5
20260509175022 67 62 0.0 0.9 0.00 0.00 0.00 64 1010.5
20260509174110 67 206 0.0 0.9 0.00 0.00 0.00 63 1010.4
20260509173022 67 233 0.0 1.7 0.00 0.00 0.00 63 1010.6
20260509172030 66 79 0.0 0.9 0.00 0.00 0.00 65 1010.7
20260509171019 65 0.0 0.0 0.00 0.00 0.00 65 1010.7
20260509170031 65 229 0.0 0.9 0.00 0.00 0.00 67 1010.8
20260509165023 64 214 0.0 0.9 0.00 0.00 0.00 67 1010.7
20260509164030 64 340 0.0 0.9 0.00 0.00 0.00 67 1010.8
20260509163039 65 357 0.0 0.9 0.00 0.00 0.00 65 1010.8
20260509162030 66 57 0.0 0.9 0.00 0.00 0.00 65 1010.8
20260509161020 65 137 0.0 2.6 0.00 0.00 0.00 65 1010.9
20260509160110 64 36 0.0 1.7 0.00 0.00 0.00 67 1010.9
20260509155022 63 198 0.9 0.9 0.00 0.00 0.00 67 1011.0
20260509154051 64 97 0.0 1.7 0.00 0.00 0.00 65 1011.1
20260509153023 63 272 0.9 1.7 0.00 0.00 0.00 65 1011.1
20260509152051 63 91 0.0 0.9 0.00 0.00 0.00 66 1011.1
20260509151021 63 172 0.0 1.7 0.00 0.00 0.00 65 1011.2
20260509150031 63 84 0.0 2.6 0.00 0.00 0.00 66 1011.5
20260509145022 62 105 0.9 2.6 0.00 0.00 0.00 67 1011.7
20260509144030 61 93 0.0 1.7 0.00 0.00 0.00 69 1011.7
20260509143042 62 83 0.0 0.9 0.00 0.00 0.00 68 1011.7